Location: ????????
(55.5667°N, 37.5833°E)
Time: 11:18:25
(UTC+00:00)

Cosmos 371 Rocket - Pass Details

Date: 14 April 2026
Orbit: 674 x 689 km, 74.0° (Epoch: 10 May)

Event Time Altitude Azimuth Distance (km) Brightness Sun altitude
Rises 21:28:58 0° 328° (NNW) 3,067 7.5 -24.8°
Reaches altitude 10° 21:31:24 10° 321° (NW) 2,149 6.5 -24.8°
Enters shadow 21:35:28 38° 266° (W) 1,056 4.1 -24.8°
